Regional Weather Roundup
Issued by NWS

Home | Current Version | Previous Version | Graphics & Text | Print | Product List | Glossary On
Versions: 1 2 3 4 5 6 7 8 9 10 11 12 13 14 15 16 17 18 19 20 21 22 23 24 25 26 27 28 29 30 31 32 33 34 35 36 37 38 39 40 41 42 43 44 45 46 47 48 49 50
000
ASUS43 KOAX 260502
RWRNE

WEATHER ROUNDUP FOR NEBRASKA
NATIONAL WEATHER SERVICE OMAHA NE
1200 AM CDT TUE MAY 26 2015

NOTES: SATELLITE DATA IS BEING USED TO AUGMENT CLOUD COVER ABOVE
       12000 FEET.
       "FAIR" INDICATES FEW OR NO CLOUDS BELOW 12,000 FEET WITH NO
       SIGNIFICANT WEATHER AND/OR OBSTRUCTIONS TO VISIBILITY.

  * THESE STATIONS DO NOT REPORT WEATHER SUCH AS RAIN...SNOW OR FOG.

NEZ001>004-019>022-054>056-260600-
NEBRASKA PANHANDLE

CITY           SKY/WX    TMP DP  RH WIND       PRES   REMARKS
SCOTTSBLUFF    PTCLDY    50  48  93 NW5       29.96R
ALLIANCE       PTCLDY    49  47  93 NW7       29.94R
CHADRON        CLOUDY    55  53  93 N5        29.95R
SIDNEY         MOCLDY    48  46  93 W7        29.96R
$$

NEZ057>060-069>072-079>082-260600-
SOUTHWEST NEBRASKA

CITY           SKY/WX    TMP DP  RH WIND       PRES   REMARKS
NORTH PLATTE   CLOUDY    55  50  83 NW9       29.89R
IMPERIAL       CLOUDY    54  50  86 NW9       29.90F
LEXINGTON      MOCLDY    59  55  85 N13       29.83S
MCCOOK         CLEAR     56  52  86 NW10      29.86R
$$

NEZ005>010-023>029-035>040-094-260600-
NORTH CENTRAL NEBRASKA

CITY           SKY/WX    TMP DP  RH WIND       PRES   REMARKS
VALENTINE      MOCLDY    56  53  90 N6        29.90R
AINSWORTH      CLOUDY    57  56  97 N6        29.89R
BROKEN BOW     CLOUDY    58  54  86 N14       29.83F
ORD            LGT RAIN  60  56  86 N8        29.80F
$$

NEZ041-046>049-061>064-073>077-083>087-260600-
SOUTH CENTRAL NEBRASKA

CITY           SKY/WX    TMP DP  RH WIND       PRES   REMARKS
GRAND ISLAND   CLOUDY    61  58  90 S5        29.78F
HASTINGS       CLOUDY    61  57  87 VRB5      29.78F
KEARNEY *      CLOUDY    63  50  63 NW10      29.80F
$$

NEZ011>018-030>034-042>045-260600-
NORTHEAST NEBRASKA

CITY           SKY/WX    TMP DP  RH WIND       PRES   REMARKS
NORFOLK        CLOUDY    62  54  74 N8        29.80S
BLAIR          CLOUDY    63  58  85 SE3       29.79F
COLUMBUS *     CLOUDY   N/A N/A N/A MISG        N/A
FREMONT        CLOUDY    64  61  90 SE3       29.80F
TEKAMAH        CLOUDY    63  60  90 S15       29.79S
$$

NEZ050>053-065>068-078-088>093-260600-
SOUTHEAST NEBRASKA

CITY           SKY/WX    TMP DP  RH WIND       PRES   REMARKS
LINCOLN        CLOUDY    64  57  78 SE3       29.80S
OMAHA EPPLEY   CLOUDY    65  59  81 E5        29.80F
FALLS CITY     LGT RAIN  61  58  90 SE7       29.79F
PLATTSMOUTH    CLOUDY    61  57  88 CALM      29.81S
$$

NEZ044-045-051>053-067-260600-
OMAHA AREA

CITY           SKY/WX    TMP DP  RH WIND       PRES   REMARKS
OMAHA EPPLEY   CLOUDY    65  59  81 E5        29.80F
BLAIR          CLOUDY    63  58  85 SE3       29.79F
FREMONT        CLOUDY    64  61  90 SE3       29.80F
OFFUTT AFB     CLOUDY    61  59  94 E3        29.79F
PLATTSMOUTH    CLOUDY    61  57  88 CALM      29.81S
$$



USA.gov is the U.S. government's official web portal to all federal, state and local government web resources and services.